Date,TemperatureHighF,TemperatureAvgF,TemperatureLowF,DewpointHighF,DewpointAvgF,DewpointLowF,HumidityHigh,HumidityAvg,HumidityLow,PressureMaxIn,PressureMinIn,WindSpeedMaxMPH,WindSpeedAvgMPH,GustSpeedMaxMPH,PrecipitationSumIn
2013-10-1,77.2,63.7,54.9,59.5,53.7,48.2,90,72,43,30.04,29.96,0,0,0,0.00
2013-10-2,76.9,62.6,53.6,51.0,41.7,27.0,73,49,24,30.02,29.93,0,0,0,0.00
2013-10-3,72.7,58.9,47.5,34.2,29.6,23.6,54,35,17,30.15,30.01,0,0,0,0.00
2013-10-4,79.2,64.2,52.7,30.3,26.1,20.3,38,25,15,30.21,30.14,0,0,0,0.00
2013-10-5,81.4,67.6,58.7,36.5,29.1,21.4,42,25,17,30.26,30.18,0,0,0,0.00
2013-10-6,83.3,65.7,56.2,41.4,35.7,29.4,43,34,19,30.19,30.06,0,0,0,0.00
2013-10-7,81.7,65.2,54.7,39.0,32.2,26.3,42,31,15,30.06,29.93,0,0,0,0.00
2013-10-8,76.7,62.4,53.6,41.4,34.6,28.6,50,36,21,29.94,29.70,0,0,0,0.00
2013-10-9,73.3,61.1,51.5,37.9,35.4,31.4,49,39,25,29.81,29.60,0,0,0,0.00
2013-10-10,70.9,57.9,49.7,46.0,41.0,34.8,69,54,40,30.04,29.79,0,0,0,0.00
2013-10-11,73.6,58.9,50.0,46.0,41.8,39.4,71,55,32,30.09,30.01,0,0,0,0.00
2013-10-12,73.6,59.2,50.8,49.9,42.1,37.5,86,55,33,30.03,29.90,0,0,0,0.11
2013-10-13,72.9,59.8,51.1,46.5,39.6,34.3,82,49,32,30.10,29.95,0,0,0,0.01
2013-10-14,76.0,63.8,55.8,39.5,34.6,26.4,45,35,23,30.15,30.06,0,0,0,0.00
2013-10-15,78.7,66.4,58.7,34.2,29.1,22.9,34,25,17,30.12,30.04,0,0,0,0.00
2013-10-16,78.8,63.9,54.4,39.9,31.5,21.3,47,31,21,30.15,30.05,0,0,0,0.00
2013-10-17,79.0,63.4,54.2,38.8,35.1,29.6,45,36,21,30.12,30.02,0,0,0,0.00
2013-10-18,80.1,66.5,58.1,39.9,35.6,29.1,47,33,22,30.10,30.02,0,0,0,0.00
2013-10-19,82.6,66.1,56.3,41.4,38.0,33.1,48,37,22,30.13,30.07,0,0,0,0.00
2013-10-20,84.2,66.3,56.5,44.3,40.0,35.6,51,40,22,30.08,29.95,0,0,0,0.00
2013-10-21,81.7,65.2,57.1,44.4,39.4,33.0,53,40,23,30.04,29.96,0,0,0,0.00
2013-10-22,84.1,66.7,56.9,41.5,36.4,25.0,49,34,20,30.06,29.98,0,0,0,0.00
2013-10-23,84.6,67.0,57.6,36.8,30.3,20.6,37,26,16,30.00,29.91,0,0,0,0.00
2013-10-24,59.4,58.5,56.9,32.1,30.2,28.4,36,34,32,29.99,29.96,0,0,0,0.00